Location: Charbonni�res
(45.9952°N, 2.9982°E)
Time: 18:04:27
(UTC+00:00)

USA 81 - Pass Details

Date: 29 November 2020
Orbit: 783 x 791 km, 85.0° (Epoch: 30 November)

Event Time Altitude Azimuth Distance (km) Brightness Sun altitude
Rises 06:16:36 0° 184° (S) 3,257 7.5 -8.7°
Reaches altitude 10° 06:18:57 10° 185° (S) 2,333 6.7 -8.3°
Maximum altitude 06:24:12 87° 274° (W) 791 4.1 -7.5°
Drops below altitude 10° 06:29:29 10° 5° (N) 2,351 6.3 -6.7°
Sets 06:31:51 0° 6° (N) 3,285 7.1 -6.3°
